Погода в Георгиевске

Погода в Георгиевске : погода сейчас, прогноз погоды и архив. Всё, что Вы хотите узнать о погоде в Георгиевске!

Поиск расширенной информации на нашем сайте:

Другие новости

Новости СМИ2

Главная страница сайта

Новости сайта

02.10.2013

Напоминаем, что на нашем новом сайте вы можете получить высокодетализированные прогнозы погоды по пунктам России, СНГ и мира (включающие важные для авиации метеовеличины, такие как направление и скорость ветра, видимость, явления погоды, количество и форма облачности, нижняя и верхняя граница облачности), а также ознакомиться с разнообразными материалами по авиационной метеорологии и подборкой полезных ссылок на эту тему.

Сайт Метеоцентр.Азия посвящён разработке технологий оптимизации авиаметеорологического обслуживания, включая проектирование и перспективное создание нескольких автоматизированных авиаметеорологических систем:
- система выпуска высокодетальных прогностических карт явлений погоды для нижнего воздушного пространства по России и ближнему зарубежью;
- система верификации прогнозов TAF (выпускаемых синоптиками официальных АМСГ РФ и ближнего зарубежья) и AUTOTAF (выпускаемых сайтом Метеоцентр.Азия) - выявление ошибок, онлайн-сопоставление с фактической погодой METAR, автоматическое внесение коррективов в прогнозы при резком отклонении фактической погоды от прогноза, подсчёт оправдываемости прогнозов по элементам и в целом;
- система обработки, анализа и отображения авиаметеорологической информации для применения провайдерами метеорологической информации.


Погода в Георгиевске - сегодня

Время (UTC), дата Ветер
(°,м/с) 
Видим.   Явления Облачность Т
(°С)
Тd
(°С)
f(%) Тe
(°С)
Pmin
(гПа)
dP
(гПа)
Po
(мм)
O2
(г/м3)
Тmin Tmax R s Состояние
почвы
09 26.04.17 090 (В) 20000 м    ясно 
+14.6 +0.7 39 +15  1030.3  -1  746  285           
12 26.04.17 090 (В) 3{10}  20000 м    ясно 
+16.7 -1.5 29 +17  1028.4  -1.5  745  283           
15 26.04.17 090 (В) 20000 м    ясно 
+15.4 -2.7 29 +16  1027.8  -0.8  745  284    +17.1       
18 26.04.17 110 (В) 20000 м    ясно 
+10.3 +0.1 49 +10  1029.3  0.8  745  289           
21 26.04.17 110 (В) 20000 м    ясно 
+5.9 -0.2 65 +7  1029.5  -0.4  745  294           
00 27.04.17 тихо ()   20000 м    ясно 
+2.9 -0.5 78 +3  1028.2  -1.5  744  297           
03 27.04.17 тихо ()   20000 м    10/0 средняя 
[As op]
+2 -0.5 83 +2  1027.3  -0.1  744  297  +2        сухая 
06 27.04.17 100 (В) 2000 м  дымка{туман}  10/10 300 м 
[St]
+4.1 +2.6 90 +5  1028.1  0.1  744  295           
09 27.04.17 120 (ЮВ) 20000 м    6/3 600 м средняя 
[Cu med, cong|Ac trans]
+11.6 +5 64 +11  1026.2  -0.8  743  286           
12 27.04.17 100 (В) 20000 м    ясно 
+19 +5.1 40 +20  1022.4  -2.8  741  278           
15 27.04.17 060 (СВ) 20000 м    ясно 
+17.9 +1.1 32 +19  1021.1  -1.3  740  280    +19.9       
18 27.04.17 060 (СВ) 20000 м    ясно 
+11.8 +3.2 56 +13  1022.7  0.8  741  286           
21 27.04.17 тихо ()   20000 м    ясно 
+7.4 +3 74 +7  1023.1  -0.2  740  290           
00 28.04.17 290 (З) 20000 м    ясно 
+4.2 +1.7 84 +5  1021.9  -1.5  739  293           
03 28.04.17 270 (З) 20000 м    ясно 
+3.5 +1.4 86 +4  1021.7  -0.4  739  294  +3.1        сухая 
06 28.04.17 080 (В) 20000 м    ясно 
+13.6 +4.6 54 +15  1020.3  739  283           
09 28.04.17 090 (В) 20000 м    3/0 средняя 
[Ac trans]
+21.2 +4.3 33 +21  1018.3  -1.1  738  275           
12 28.04.17 060 (СВ) 20000 м    5/0 верхняя 
[Ci]
+23.9 +3.4 26 +24  1017.2  -0.8  738  273           
15 28.04.17 070 (В) 20000 м    ясно 
+21.8 +3.2 29 +22  1017.2  0.1  737  275    +23.9       
18 28.04.17 тихо ()   20000 м    ясно 
+14.3 +6.4 59 +14  1018.7  0.5  738  281           
21 28.04.17 тихо ()   20000 м    ясно 
+10.6 +5.7 72 +11  1019  0.1  738  285           
00 29.04.17 тихо ()   20000 м    ясно 
+8 +4.7 80 +8  1019.3  738  288           
03 29.04.17 тихо ()   20000 м    8/0 верхняя 
[Ci]
+7.2 +5.2 87 +7  1019.8  0.4  738  289  +6.6        сухая 
06 29.04.17 тихо ()   20000 м    10/0 верхняя 
[Ci]
+16.3 +6.6 53 +16  1018.6  0.4  738  280           
09 29.04.17 050 (СВ) 20000 м    10/0 средняя, верхняя 
[Ac trans|Ci]
+23.1 +5.7 32 +23  1016.6  -1.2  737  273           
Время (UTC), дата Ветер
(°,м/с) 
Видим.   Явления Облачность Т
(°С)
Тd
(°С)
f(%) Тe
(°С)
Pmin
(гПа)
dP
(гПа)
Po
(мм)
O2
(г/м3)
Тmin Tmax R s Состояние
почвы

Для получения пояснительной информации подведите курсор к названию столбца.

ПОГОДА в Георгиевске - архив

Всё, что Вы хотите узнать о погоде в Георгиевске - удобно и подробно!

Выберите нужную дату (начиная с 1 января 2015* года) и нажмите кнопку "Найти".
Будут отображены архивные сводки погоды по пункту Георгиевск, начиная с указанной даты.


Отображать данные в формате CSV (для использования в таблицах Excel)


Внимание! Наш архив погоды предназначен исключительно для личного некоммерческого использования в познавательных целях. Если Вам необходимы официальные справки о состоянии погоды (для производственных, юридических, коммерческих и т.п. целей), обращайтесь в органы Росгидромета.

*Примечание: данная дата относится к архиву по метеостанциям СССР (Россия, СНГ, Балтия).
Архив по метеостанциям Зарубежной Европы и Азии (кроме Китая) хранится 10 дней, по другим регионам земного шара (Китай, Африка, Америка, Австралия, Океания) - 1 день.

Георгиевск - район местоположения метеостанции


Название, широта, долгота, высота метеостанции:
Георгиевск 44.2°ш. 43.5°д. 302 м над ур. моря [Российская Федерация]

Дополнительная информация

В oтличие oт бoльшинства пoгoдных сайтoв мы публикуем пoдрoбную метеoинфoрмацию в детальнoм прoфессиoнальнoм фoрмате.

Характеристики температуры и влажнoсти вoздуха измеряются на высoте 2 м в тени вдали oт зданий и деревьев.
Скoрoсть ветра измеряется на высoте 10 м (на урoвне рoста челoвека скoрoсть ветра ниже в 1.5-2 раза). Если метеoстанция нахoдится в гoрoде или в лесу, тo скoрoсть ветра занижена на 2-4 м/с пo сравнению с oткрытым местoм. Скoрoсть ветра над акватoриями крупных рек и oзёр, а также на вершинах хoлмoв на 2-5 м/с выше, чем в oбычных услoвиях.
Атмoсфернoе давление в разных тoчках местнoсти мoжет значительнo oтличаться oт давления на метеoстанции, в зависимoсти oт услoвий рельефа (при пoдъёме на 10 м давление пoнижается примернo на 1 мм рт.ст.).